Location: Newark
(23.3970°S, 47.6010°W)
Time: 11:55:46
(UTC+00:00)

Tiros 1 despin weight - Pass Details

Date: 26 February 2020
Orbit: 593 x 642 km, 48.2° (Epoch: 03 April)

Event Time Altitude Azimuth Distance (km) Brightness Sun altitude
Rises 11:44:28 0° 334° (NNW) 2,846 ? 35.8°
Reaches altitude 10° 11:46:51 10° 342° (NNW) 1,957 ? 36.3°
Maximum altitude 11:51:02 38° 50° (NE) 946 ? 37.3°
Drops below altitude 10° 11:55:19 10° 118° (ESE) 2,005 ? 38.2°
Sets 11:57:46 0° 125° (SE) 2,926 ? 38.8°
